WMT735 LRTR-LIBD

Flight info

Callsign WMT735
Flight time 1h 17m
Altitude 35000
Route MAVI3F MAVIT LASTI PINUK CRAYE ENOXA ENOX1N
Aircraft A320/M-SDE3FGHIRWY/L

Departure

Time 2026-05-09 15:29
Airport Timișoara Traian Vuia International Airport (LRTR)

Arrival

Time 2026-05-09 16:47
Airport Bari Karol Wojtyła International Airport (LIBD)
Time Latitude Longitude Altitude Speed Heading
2026-05-09 15:11 45.81058 21.32139 344 ft 0 kts 199°
2026-05-09 15:22 45.81066 21.32143 344 ft 2 kts 199°
2026-05-09 15:22 45.81080 21.32150 344 ft 2 kts 200°
2026-05-09 15:23 45.81093 21.32163 344 ft 2 kts 232°
2026-05-09 15:23 45.81100 21.32182 345 ft 2 kts 257°
2026-05-09 15:23 45.81101 21.32204 345 ft 1 kts 282°
2026-05-09 15:23 45.81099 21.32213 345 ft 1 kts 293°
2026-05-09 15:24 45.81097 21.32218 345 ft 0 kts 289°
2026-05-09 15:26 45.81097 21.32217 345 ft 0 kts 289°
2026-05-09 15:26 45.81103 21.32191 345 ft 4 kts 288°
2026-05-09 15:26 45.81121 21.32114 344 ft 12 kts 288°
2026-05-09 15:27 45.81150 21.32052 344 ft 2 kts 342°
2026-05-09 15:27 45.81176 21.32057 344 ft 8 kts 16°
2026-05-09 15:27 45.81262 21.32103 344 ft 17 kts 21°
2026-05-09 15:27 45.81377 21.32163 344 ft 14 kts 52°
2026-05-09 15:28 45.81380 21.32182 344 ft 0 kts 111°
2026-05-09 15:28 45.81376 21.32200 344 ft 14 kts 108°
2026-05-09 15:28 45.81256 21.32707 349 ft 89 kts 110°
2026-05-09 15:28 45.80986 21.33785 355 ft 147 kts 109°
2026-05-09 15:29 45.80602 21.35330 579 ft 174 kts 108°
2026-05-09 15:29 45.80195 21.36916 1298 ft 170 kts 108°
2026-05-09 15:29 45.79785 21.38466 2043 ft 166 kts 107°
2026-05-09 15:29 45.79378 21.40068 2539 ft 178 kts 106°
2026-05-09 15:30 45.78940 21.41827 2939 ft 197 kts 106°
2026-05-09 15:30 45.78456 21.43771 3361 ft 216 kts 107°
2026-05-09 15:30 45.77863 21.45856 3819 ft 236 kts 120°
2026-05-09 15:30 45.76590 21.47462 4266 ft 257 kts 156°
2026-05-09 15:31 45.74801 21.47788 4774 ft 272 kts 191°
2026-05-09 15:31 45.73080 21.46641 5443 ft 279 kts 217°
2026-05-09 15:31 45.71527 21.45216 6170 ft 286 kts 202°
2026-05-09 15:31 45.69571 21.44651 7008 ft 289 kts 182°
2026-05-09 15:32 45.67526 21.44626 7838 ft 293 kts 178°
2026-05-09 15:32 45.65481 21.44709 8644 ft 296 kts 178°
2026-05-09 15:32 45.63410 21.44785 9430 ft 300 kts 178°
2026-05-09 15:32 45.61282 21.44835 10215 ft 303 kts 179°
2026-05-09 15:33 45.59153 21.44865 10745 ft 315 kts 179°
2026-05-09 15:33 45.56899 21.44882 11271 ft 326 kts 180°
2026-05-09 15:33 45.54644 21.44893 11992 ft 329 kts 180°
2026-05-09 15:33 45.52342 21.44902 12739 ft 331 kts 180°
2026-05-09 15:34 45.50036 21.44909 13464 ft 334 kts 180°
2026-05-09 15:34 45.47712 21.44915 14159 ft 337 kts 180°
2026-05-09 15:34 45.45344 21.44920 14849 ft 340 kts 181°
2026-05-09 15:34 45.42952 21.44859 15531 ft 341 kts 187°
2026-05-09 15:35 45.40619 21.44136 16201 ft 341 kts 201°
2026-05-09 15:35 45.38519 21.42733 16869 ft 341 kts 211°
2026-05-09 15:35 45.36458 21.41046 17454 ft 345 kts 212°
2026-05-09 15:35 45.34352 21.39283 18002 ft 350 kts 212°
2026-05-09 15:36 45.32256 21.37543 18596 ft 353 kts 211°
2026-05-09 15:36 45.30101 21.35774 19207 ft 355 kts 211°
2026-05-09 15:36 45.27948 21.34019 19804 ft 358 kts 211°
2026-05-09 15:36 45.25777 21.32257 20390 ft 360 kts 211°
2026-05-09 15:37 45.23592 21.30483 20965 ft 363 kts 211°
2026-05-09 15:37 45.21373 21.28664 21537 ft 365 kts 211°
2026-05-09 15:37 45.19147 21.26835 22088 ft 368 kts 211°
2026-05-09 15:37 45.16910 21.25000 22643 ft 371 kts 211°
2026-05-09 15:38 45.14649 21.23147 23194 ft 374 kts 211°
2026-05-09 15:38 45.12378 21.21289 23719 ft 377 kts 211°
2026-05-09 15:38 45.10106 21.19437 24206 ft 380 kts 211°
2026-05-09 15:38 45.07770 21.17535 24711 ft 383 kts 211°
2026-05-09 15:39 45.05432 21.15632 25187 ft 386 kts 211°
2026-05-09 15:39 45.03081 21.13718 25639 ft 390 kts 212°
2026-05-09 15:39 45.00707 21.11787 26077 ft 393 kts 212°
2026-05-09 15:39 44.98325 21.09851 26505 ft 396 kts 212°
2026-05-09 15:40 44.95900 21.07884 26934 ft 399 kts 212°
2026-05-09 15:40 44.93448 21.05896 27362 ft 401 kts 212°
2026-05-09 15:40 44.91027 21.03934 27758 ft 404 kts 212°
2026-05-09 15:40 44.88625 21.01992 28142 ft 406 kts 213°
2026-05-09 15:41 44.86158 21.00010 28516 ft 409 kts 213°
2026-05-09 15:41 44.83768 20.98090 28859 ft 411 kts 213°
2026-05-09 15:41 44.81402 20.96188 29194 ft 412 kts 213°
2026-05-09 15:41 44.78821 20.94113 29549 ft 414 kts 213°
2026-05-09 15:42 44.76373 20.92144 29866 ft 416 kts 213°
2026-05-09 15:42 44.73883 20.90143 30176 ft 418 kts 213°
2026-05-09 15:42 44.71332 20.88092 30492 ft 419 kts 213°
2026-05-09 15:42 44.68797 20.86057 30800 ft 421 kts 213°
2026-05-09 15:43 44.66222 20.83991 31113 ft 422 kts 213°
2026-05-09 15:43 44.63696 20.81967 31422 ft 422 kts 213°
2026-05-09 15:43 44.61177 20.79951 31809 ft 420 kts 213°
2026-05-09 15:43 44.58635 20.77921 32242 ft 418 kts 213°
2026-05-09 15:44 44.56092 20.75891 32643 ft 415 kts 213°
2026-05-09 15:44 44.53579 20.73886 33019 ft 413 kts 213°
2026-05-09 15:44 44.51087 20.71901 33373 ft 412 kts 213°
2026-05-09 15:44 44.48576 20.69900 33666 ft 412 kts 214°
2026-05-09 15:45 44.46080 20.67915 33907 ft 412 kts 214°
2026-05-09 15:45 44.43695 20.66017 34142 ft 413 kts 214°
2026-05-09 15:45 44.41189 20.64028 34354 ft 414 kts 214°
2026-05-09 15:45 44.38689 20.62045 34538 ft 414 kts 214°
2026-05-09 15:46 44.36168 20.60048 34714 ft 414 kts 214°
2026-05-09 15:46 44.33631 20.58041 34886 ft 415 kts 214°
2026-05-09 15:46 44.31133 20.56065 35017 ft 416 kts 214°
2026-05-09 15:46 44.28612 20.54074 35031 ft 416 kts 214°
2026-05-09 15:47 44.23537 20.50070 35044 ft 417 kts 214°
2026-05-09 15:47 44.18491 20.46100 35048 ft 417 kts 215°
2026-05-09 15:48 44.13420 20.42114 35048 ft 417 kts 215°
2026-05-09 15:48 44.08357 20.38146 35053 ft 417 kts 215°
2026-05-09 15:49 44.03280 20.34168 35056 ft 418 kts 214°
2026-05-09 15:49 43.98517 20.30422 35053 ft 419 kts 215°
2026-05-09 15:50 43.93480 20.26480 35059 ft 419 kts 215°
2026-05-09 15:50 43.88359 20.22493 35059 ft 419 kts 215°
2026-05-09 15:51 43.83236 20.18536 35066 ft 420 kts 215°
2026-05-09 15:51 43.78181 20.14633 35065 ft 421 kts 216°
2026-05-09 15:52 43.70617 20.08786 35073 ft 421 kts 215°
2026-05-09 15:53 43.65586 20.04905 35073 ft 420 kts 216°
2026-05-09 15:53 43.60535 20.01031 35076 ft 400 kts 216°
2026-05-09 15:54 43.55627 19.97251 35078 ft 411 kts 216°
2026-05-09 15:54 43.51572 19.94130 35080 ft 420 kts 216°
2026-05-09 15:55 43.45512 19.89482 35090 ft 432 kts 216°
2026-05-09 15:55 43.40191 19.85420 35086 ft 441 kts 216°
2026-05-09 15:56 43.34737 19.81263 35087 ft 448 kts 216°
2026-05-09 15:56 43.29231 19.77075 35090 ft 454 kts 216°
2026-05-09 15:57 43.23674 19.72859 35091 ft 458 kts 216°
2026-05-09 15:57 43.18068 19.68618 35092 ft 457 kts 216°
2026-05-09 15:58 43.12515 19.64422 35089 ft 458 kts 216°
2026-05-09 15:58 43.06892 19.60179 35093 ft 459 kts 216°
2026-05-09 15:59 43.01380 19.56031 35096 ft 458 kts 216°
2026-05-09 15:59 42.96017 19.52005 35092 ft 458 kts 216°
2026-05-09 16:00 42.90421 19.47796 35091 ft 458 kts 216°
2026-05-09 16:00 42.84752 19.43597 35091 ft 459 kts 216°
2026-05-09 16:01 42.79139 19.39441 35094 ft 459 kts 216°
2026-05-09 16:01 42.73606 19.35329 35094 ft 458 kts 216°
2026-05-09 16:02 42.67972 19.31119 35091 ft 459 kts 217°
2026-05-09 16:02 42.59706 19.24961 35080 ft 459 kts 217°
2026-05-09 16:03 42.54070 19.20783 35071 ft 460 kts 216°
2026-05-09 16:03 42.48474 19.16649 35061 ft 459 kts 216°
2026-05-09 16:04 42.42835 19.12493 35056 ft 460 kts 217°
2026-05-09 16:04 42.37353 19.08462 35055 ft 460 kts 217°
2026-05-09 16:05 42.31750 19.04355 35058 ft 460 kts 217°
2026-05-09 16:05 42.26126 19.00234 35052 ft 461 kts 217°
2026-05-09 16:06 42.20473 18.96107 35051 ft 459 kts 217°
2026-05-09 16:06 42.14844 18.91993 35048 ft 459 kts 218°
2026-05-09 16:07 42.09581 18.87398 35208 ft 449 kts 226°
2026-05-09 16:07 42.04886 18.82016 35068 ft 441 kts 232°
2026-05-09 16:08 42.00413 18.76377 35042 ft 438 kts 232°
2026-05-09 16:08 41.96107 18.70957 35036 ft 439 kts 232°
2026-05-09 16:09 41.91684 18.65407 35035 ft 439 kts 232°
2026-05-09 16:09 41.87199 18.59813 35033 ft 439 kts 232°
2026-05-09 16:10 41.82751 18.54197 35034 ft 437 kts 232°
2026-05-09 16:10 41.78364 18.48591 35034 ft 436 kts 232°
2026-05-09 16:11 41.73992 18.43014 35033 ft 436 kts 232°
2026-05-09 16:11 41.69606 18.37429 35034 ft 436 kts 232°
2026-05-09 16:12 41.65205 18.31824 35034 ft 435 kts 232°
2026-05-09 16:12 41.60839 18.26269 35034 ft 435 kts 232°
2026-05-09 16:13 41.58654 18.23505 34890 ft 424 kts 232°
2026-05-09 16:13 41.56634 18.20959 34296 ft 418 kts 232°
2026-05-09 16:13 41.54532 18.18305 33616 ft 411 kts 232°
2026-05-09 16:13 41.52473 18.15706 32954 ft 404 kts 232°
2026-05-09 16:14 41.50493 18.13123 32292 ft 394 kts 234°
2026-05-09 16:14 41.48692 18.10493 31636 ft 383 kts 237°
2026-05-09 16:14 41.46955 18.07823 30968 ft 375 kts 237°
2026-05-09 16:14 41.45284 18.05262 30313 ft 364 kts 237°
2026-05-09 16:15 41.43656 18.02768 29669 ft 354 kts 237°
2026-05-09 16:15 41.42070 18.00338 29021 ft 345 kts 237°
2026-05-09 16:15 41.40614 17.98102 28429 ft 348 kts 237°
2026-05-09 16:15 41.39051 17.95704 27779 ft 340 kts 237°
2026-05-09 16:16 41.37503 17.93338 27130 ft 332 kts 237°
2026-05-09 16:16 41.36018 17.91071 26491 ft 326 kts 237°
2026-05-09 16:16 41.34548 17.88824 25847 ft 319 kts 237°
2026-05-09 16:16 41.33107 17.86624 25206 ft 314 kts 237°
2026-05-09 16:17 41.31691 17.84463 24562 ft 309 kts 237°
2026-05-09 16:17 41.30295 17.82332 23922 ft 304 kts 237°
2026-05-09 16:17 41.28931 17.80256 23297 ft 300 kts 237°
2026-05-09 16:17 41.27568 17.78179 22672 ft 296 kts 237°
2026-05-09 16:18 41.26231 17.76143 22051 ft 293 kts 237°
2026-05-09 16:18 41.24892 17.74108 21432 ft 290 kts 237°
2026-05-09 16:18 41.23589 17.72127 20818 ft 288 kts 237°
2026-05-09 16:18 41.22291 17.70153 20210 ft 285 kts 237°
2026-05-09 16:19 41.21177 17.68028 19570 ft 274 kts 252°
2026-05-09 16:19 41.20616 17.65676 18958 ft 264 kts 267°
2026-05-09 16:19 41.20563 17.63312 18337 ft 257 kts 280°
2026-05-09 16:19 41.20803 17.60975 17726 ft 255 kts 282°
2026-05-09 16:20 41.21061 17.58664 17123 ft 254 kts 282°
2026-05-09 16:20 41.21316 17.56373 16518 ft 254 kts 282°
2026-05-09 16:20 41.21571 17.54069 15899 ft 253 kts 282°
2026-05-09 16:20 41.21827 17.51751 15274 ft 253 kts 282°
2026-05-09 16:21 41.22076 17.49466 14670 ft 253 kts 281°
2026-05-09 16:21 41.22326 17.47179 14077 ft 253 kts 281°
2026-05-09 16:21 41.22578 17.44873 13459 ft 253 kts 281°
2026-05-09 16:21 41.22828 17.42574 12852 ft 253 kts 281°
2026-05-09 16:22 41.23078 17.40263 12237 ft 253 kts 281°
2026-05-09 16:22 41.23326 17.37960 11621 ft 253 kts 281°
2026-05-09 16:22 41.23579 17.35613 10985 ft 252 kts 281°
2026-05-09 16:22 41.23825 17.33318 10372 ft 252 kts 280°
2026-05-09 16:23 41.24070 17.31014 9763 ft 252 kts 280°
2026-05-09 16:23 41.24315 17.28714 9142 ft 251 kts 280°
2026-05-09 16:23 41.24558 17.26435 8524 ft 251 kts 280°
2026-05-09 16:23 41.24801 17.24153 7939 ft 249 kts 280°
2026-05-09 16:24 41.25042 17.21898 7350 ft 247 kts 280°
2026-05-09 16:24 41.25283 17.19647 6768 ft 245 kts 280°
2026-05-09 16:24 41.25514 17.17469 6517 ft 229 kts 280°
2026-05-09 16:24 41.25727 17.15424 6380 ft 213 kts 280°
2026-05-09 16:25 41.25929 17.13516 6260 ft 209 kts 281°
2026-05-09 16:25 41.26127 17.11648 6132 ft 209 kts 281°
2026-05-09 16:25 41.26331 17.09735 6074 ft 213 kts 281°
2026-05-09 16:25 41.26541 17.07754 6062 ft 221 kts 281°
2026-05-09 16:26 41.26758 17.05712 6054 ft 222 kts 280°
2026-05-09 16:26 41.26969 17.03685 6046 ft 222 kts 280°
2026-05-09 16:26 41.27180 17.01670 6052 ft 221 kts 280°
2026-05-09 16:26 41.27393 16.99620 6042 ft 222 kts 280°
2026-05-09 16:27 41.27605 16.97599 6036 ft 222 kts 280°
2026-05-09 16:27 41.27816 16.95567 6038 ft 222 kts 280°
2026-05-09 16:27 41.28028 16.93516 6039 ft 222 kts 280°
2026-05-09 16:27 41.28237 16.91505 6039 ft 222 kts 280°
2026-05-09 16:28 41.28450 16.89447 6054 ft 223 kts 280°
2026-05-09 16:28 41.28655 16.87454 6106 ft 214 kts 280°
2026-05-09 16:28 41.28854 16.85534 6101 ft 212 kts 280°
2026-05-09 16:28 41.29038 16.83565 6070 ft 213 kts 276°
2026-05-09 16:29 41.28905 16.81609 6060 ft 216 kts 260°
2026-05-09 16:29 41.28368 16.79749 6060 ft 218 kts 246°
2026-05-09 16:29 41.27610 16.77982 6054 ft 219 kts 242°
2026-05-09 16:29 41.26821 16.76244 6058 ft 219 kts 242°
2026-05-09 16:30 41.26035 16.74517 6051 ft 219 kts 242°
2026-05-09 16:31 41.20600 16.62047 6062 ft 218 kts 249°
2026-05-09 16:32 41.20034 16.60170 6063 ft 217 kts 252°
2026-05-09 16:32 41.19681 16.58927 6056 ft 217 kts 252°
2026-05-09 16:32 41.19018 16.56585 6061 ft 217 kts 252°
2026-05-09 16:32 41.18483 16.54695 6057 ft 217 kts 252°
2026-05-09 16:33 41.17938 16.52783 6058 ft 217 kts 252°
2026-05-09 16:33 41.17404 16.50911 6061 ft 217 kts 252°
2026-05-09 16:33 41.16861 16.49016 6062 ft 217 kts 252°
2026-05-09 16:33 41.16321 16.47130 6060 ft 217 kts 252°
2026-05-09 16:34 41.15783 16.45251 6064 ft 217 kts 252°
2026-05-09 16:34 41.15243 16.43366 6068 ft 217 kts 252°
2026-05-09 16:34 41.14701 16.41475 6068 ft 217 kts 252°
2026-05-09 16:34 41.14168 16.39605 6067 ft 217 kts 252°
2026-05-09 16:35 41.13627 16.37713 6068 ft 217 kts 252°
2026-05-09 16:35 41.13094 16.35844 6069 ft 217 kts 252°
2026-05-09 16:35 41.12547 16.33931 6072 ft 217 kts 251°
2026-05-09 16:35 41.12013 16.32047 6064 ft 217 kts 251°
2026-05-09 16:36 41.11470 16.30145 6074 ft 217 kts 251°
2026-05-09 16:36 41.09842 16.24495 6071 ft 217 kts 250°
2026-05-09 16:37 41.08969 16.22855 6046 ft 222 kts 218°
2026-05-09 16:37 41.07504 16.22238 6070 ft 225 kts 180°
2026-05-09 16:37 41.05994 16.22762 6102 ft 226 kts 158°
2026-05-09 16:37 41.04531 16.23557 6092 ft 226 kts 158°
2026-05-09 16:38 41.03060 16.24350 6093 ft 227 kts 158°
2026-05-09 16:38 41.01576 16.25151 6087 ft 227 kts 154°
2026-05-09 16:38 41.00431 16.26544 6051 ft 224 kts 115°
2026-05-09 16:38 41.00199 16.28546 6062 ft 221 kts 79°
2026-05-09 16:39 41.00703 16.30434 6081 ft 219 kts 65°
2026-05-09 16:39 41.01304 16.32316 6077 ft 219 kts 65°
2026-05-09 16:39 41.01883 16.34190 6075 ft 220 kts 65°
2026-05-09 16:39 41.02449 16.36080 6071 ft 220 kts 66°
2026-05-09 16:40 41.03005 16.37984 6073 ft 220 kts 66°
2026-05-09 16:40 41.03519 16.39768 6069 ft 220 kts 66°
2026-05-09 16:42 41.07083 16.52220 4987 ft 183 kts 65°
2026-05-09 16:42 41.07524 16.53758 4779 ft 174 kts 65°
2026-05-09 16:42 41.07951 16.55250 4490 ft 171 kts 65°
2026-05-09 16:42 41.08345 16.56628 4192 ft 170 kts 65°
2026-05-09 16:43 41.08765 16.58091 4075 ft 169 kts 65°
2026-05-09 16:43 41.09188 16.59569 4025 ft 171 kts 65°
2026-05-09 16:43 41.09616 16.61012 3810 ft 164 kts 64°
2026-05-09 16:43 41.10040 16.62396 3450 ft 162 kts 64°
2026-05-09 16:44 41.10432 16.63735 2996 ft 163 kts 66°
2026-05-09 16:44 41.10800 16.65115 2583 ft 162 kts 68°
2026-05-09 16:44 41.11166 16.66514 2179 ft 159 kts 67°
2026-05-09 16:44 41.11498 16.67782 1853 ft 154 kts 67°
2026-05-09 16:45 41.11871 16.69091 1479 ft 152 kts 64°
2026-05-09 16:45 41.12261 16.70379 1134 ft 147 kts 66°
2026-05-09 16:45 41.12604 16.71632 771 ft 146 kts 67°
2026-05-09 16:45 41.12962 16.72906 417 ft 148 kts 67°
2026-05-09 16:46 41.13305 16.74138 226 ft 136 kts 68°
2026-05-09 16:46 41.13594 16.75133 175 ft 107 kts 71°
2026-05-09 16:46 41.13804 16.75902 157 ft 73 kts 68°
2026-05-09 16:46 41.13956 16.76430 146 ft 50 kts 70°
2026-05-09 16:47 41.13961 16.76729 140 ft 21 kts 118°
2026-05-09 16:47 41.13871 16.76780 140 ft 14 kts 232°
2026-05-09 16:47 41.13835 16.76662 143 ft 13 kts 250°
2026-05-09 16:47 41.13800 16.76563 145 ft 11 kts 219°
2026-05-09 16:48 41.13733 16.76581 145 ft 11 kts 141°
2026-05-09 16:48 41.13688 16.76613 145 ft 6 kts 160°
2026-05-09 16:48 41.13670 16.76622 145 ft 0 kts 163°
2026-05-09 16:48 41.13660 16.76627 145 ft 2 kts 160°
2026-05-09 16:49 41.13654 16.76629 146 ft 0 kts 170°
2026-05-09 16:49 41.13653 16.76628 146 ft 0 kts 194°
2026-05-09 16:49 41.13649 16.76625 146 ft 0 kts 221°
2026-05-09 16:50 41.13648 16.76622 146 ft 0 kts 242°